TimeMDT,TemperatureF,Dew PointF,Humidity,Sea Level PressureIn,VisibilityMPH,Wind Direction,Wind SpeedMPH,Gust SpeedMPH,PrecipitationIn,Events,Conditions,WindDirDegrees,DateUTC
12:55 AM,57.9,52.0,81,29.85,10.0,Calm,Calm,-,N/A,,Clear,0,2013-09-02 06:55:00
1:55 AM,60.1,51.1,72,29.83,10.0,NNW,3.5,-,N/A,,Clear,330,2013-09-02 07:55:00
2:55 AM,57.0,51.1,81,29.84,10.0,ENE,5.8,-,N/A,,Clear,60,2013-09-02 08:55:00
3:55 AM,55.9,51.1,84,29.85,10.0,WNW,3.5,-,N/A,,Clear,290,2013-09-02 09:55:00
4:55 AM,57.9,50.0,75,29.85,10.0,WNW,4.6,-,N/A,,Clear,300,2013-09-02 10:55:00
5:55 AM,55.9,50.0,80,29.83,10.0,NNW,4.6,-,N/A,,Clear,340,2013-09-02 11:55:00
6:55 AM,54.0,48.9,83,29.83,10.0,WNW,3.5,-,N/A,,Clear,290,2013-09-02 12:55:00
7:55 AM,57.9,48.0,70,29.84,10.0,Variable,3.5,-,N/A,,Clear,0,2013-09-02 13:55:00
8:55 AM,62.1,52.0,70,29.87,10.0,North,3.5,-,N/A,,Clear,10,2013-09-02 14:55:00
9:55 AM,66.9,50.0,54,29.88,10.0,NW,3.5,-,N/A,,Clear,310,2013-09-02 15:55:00
10:55 AM,73.0,50.0,44,29.88,10.0,North,6.9,-,N/A,,Clear,10,2013-09-02 16:55:00
11:55 AM,77.0,50.0,39,29.87,10.0,North,4.6,-,N/A,,Clear,360,2013-09-02 17:55:00
12:55 PM,81.0,50.0,34,29.87,10.0,Variable,4.6,-,N/A,,Clear,0,2013-09-02 18:55:00
1:55 PM,79.0,50.0,36,29.91,10.0,East,3.5,-,N/A,,Clear,100,2013-09-02 19:55:00
2:55 PM,77.0,46.0,33,29.91,10.0,Variable,6.9,-,N/A,,Scattered Clouds,0,2013-09-02 20:55:00
3:55 PM,78.1,46.0,32,29.91,10.0,Variable,4.6,-,N/A,,Partly Cloudy,0,2013-09-02 21:55:00
4:55 PM,78.1,48.9,36,29.88,10.0,North,10.4,-,N/A,,Clear,360,2013-09-02 22:55:00
5:55 PM,82.9,48.0,29,29.88,10.0,North,6.9,-,N/A,,Clear,350,2013-09-02 23:55:00
6:55 PM,81.0,48.0,31,29.90,10.0,North,4.6,-,N/A,,Clear,350,2013-09-03 00:55:00
7:55 PM,75.0,50.0,41,29.90,10.0,Calm,Calm,-,N/A,,Partly Cloudy,0,2013-09-03 01:55:00
8:55 PM,70.0,53.1,55,29.94,10.0,SW,5.8,-,N/A,,Mostly Cloudy,220,2013-09-03 02:55:00
9:55 PM,66.0,55.9,70,29.94,10.0,NNW,6.9,-,0.00,,Overcast,340,2013-09-03 03:55:00
10:55 PM,64.0,55.9,75,29.94,10.0,Calm,Calm,-,N/A,,Partly Cloudy,0,2013-09-03 04:55:00
11:55 PM,62.1,55.9,80,29.94,10.0,SW,4.6,-,N/A,,Clear,220,2013-09-03 05:55:00